Regional Weather Roundup
Issued by NWS Jackson, KY

Home | Current Version | Previous Version | Graphics & Text | Print | Product List | Glossary On
Versions: 1 2 3 4 5 6 7 8 9 10 11 12 13 14 15 16 17 18 19 20 21 22 23 24 25 26 27
000
ASUS43 KJKL 252110
RWRJKL

EAST KENTUCKY HOURLY WEATHER ROUNDUP
NATIONAL WEATHER SERVICE JACKSON KY
500 PM EDT SAT MAR 25 2017

NOTE: "FAIR" INDICATES FEW OR NO CLOUDS BELOW 12,000 FEET WITH
NO SIGNIFICANT WEATHER AND/OR OBSTRUCTIONS TO VISIBILITY.

* THESE REPORTS ARE NOT UNDER NWS QUALITY CONTROL AND MAY NOT
  REPORT WEATHER SUCH AS PRECIPITATION AND FOG.

KYZ079-080-083-085-087-088-110-112-115-119-120-252200
...EASTERN KENTUCKY...

CITY           SKY/WX    TMP DP  RH WIND       PRES   REMARKS
JACKSON        PTSUNNY   76  47  35 VRB6      30.08F
LONDON         CLOUDY    74  46  36 S12       30.08F
SOMERSET*      MOSUNNY   72  46  40 S10       30.08S
MONTICELLO*    CLOUDY    73  51  46 VRB7G16   30.08S
WILLIAMSBURG*  CLOUDY    73  48  40 SE12G17   30.08S
MIDDLESBORO*   MOSUNNY   73  49  42 SE7       30.09F
HARLAN APT*    PTCLDY    77  41  27 SE5       30.10F
PIKE CO APT*     N/A     75  46  35 SE8       30.09F
BIG SANDY APT* CLOUDY    77  47  35 S5        30.08F
MOREHEAD APT*  CLOUDY    77  46  33 VRB6      30.08F
ASHLAND*       CLOUDY    64  52  63 E3        30.07F
$$

KYZ035-036-041-042-044-050-067-078-099-252200
...CENTRAL KENTUCKY...

CITY           SKY/WX    TMP DP  RH WIND       PRES   REMARKS
MT STERLING*   CLOUDY    75  50  41 S9        30.08S
FLEMING/MASON* PTSUNNY   72  51  47 S6        30.08F
DANVILLE*      PTSUNNY   73  50  43 S13       30.06F
LEXINGTON      MOSUNNY   75  48  38 SE15      30.05F
FRANKFORT      MOSUNNY   79  47  32 S15G25    30.01F
LOUISVILLE     CLOUDY    76  48  37 S22G28    29.99F
LEBANON*         N/A     73  50  43 SE14      30.04S
GLASGOW*       PTSUNNY   74  51  44 S9        30.00F
BOWLING GREEN  CLOUDY    75  53  46 S18       29.98F
$$

KYZ091>093-OHZ055-061-077-WVZ005-015-034-035-042-252200
...SOUTHERN OHIO/WEST VIRGINIA...

CITY           SKY/WX    TMP DP  RH WIND       PRES   REMARKS
COVINGTON      CLOUDY    74  51  44 S18       30.02F
COLUMBUS       CLOUDY    74  51  44 S9        30.07F
DAYTON         CLOUDY    73  50  44 S10       30.04F
WILMINGTON     CLOUDY    71  53  52 SE12      30.06F
HUNTINGTON     CLOUDY    74  47  38 VRB3      30.08F
CHARLESTON     CLOUDY    76  47  35 CALM      30.09F
PINEVILLE*     PTSUNNY   77  36  23 MISG      30.16S
BECKLEY        CLOUDY    71  44  37 VRB5      30.15F
BLUEFIELD      MOSUNNY   68  43  40 VRB7      30.17F
LOGAN CO APT*    N/A     75  45  33 CALM      30.10F
$$

VAZ002-007-008-TNZ017-027-036-066-071-252200
...SOUTHWEST VIRGINIA/EAST TENNESSEE...

CITY           SKY/WX    TMP DP  RH WIND       PRES   REMARKS
WISE*          MOSUNNY   70  41  35 S9        30.17S
JONESVILLE*      N/A     75  45  33 S6        30.12F
ABINGDON*      CLOUDY    75  45  33 W10       30.14F
BRISTOL        PTSUNNY   76  48  37 SW10      30.12F
MORRISTOWN*    CLEAR     75  46  35 SW7       30.09F
SEVIERVILLE*   CLEAR     75  45  33 SW8       30.08F
KNOXVILLE      PTSUNNY   75  48  38 S9        30.08F
LAFOLLETTE*    PTCLDY    73  48  40 S8        30.12F
OAK RIDGE      MOSUNNY   77  47  34 SW9G17    30.09F
CROSSVILLE     CLOUDY    69  48  47 S12       30.09F
NASHVILLE      LGT RAIN  67  60  78 S14       30.01S
$$

...KEY TO REMARKS...
VSB - VISIBILITY IN MILES
WCI - WIND CHILL INDEX
HX  - HEAT INDEX

$$




USA.gov is the U.S. government's official web portal to all federal, state and local government web resources and services.